FW4834 Weather Reports


time (UTC)temp
F
wind
direction
speed
knots
gust
knots
rain 1hr
in
rain 24hr
in
rain mn
in
humidity
%
barometer
mb
20260506104027 53 128 0.0 0.0 0.00 0.00 0.00 73 1014.0
20260506103527 53 128 0.0 0.0 0.00 0.00 0.00 73 1013.9
20260506103029 53 128 0.0 0.0 0.00 0.00 0.00 73 1013.9
20260506102527 53 128 0.0 0.0 0.00 0.00 0.00 73 1013.9
20260506102027 53 128 0.0 0.0 0.00 0.00 0.00 73 1013.9
20260506101526 53 128 0.0 0.0 0.00 0.00 0.00 73 1013.9
20260506101026 53 128 0.0 0.0 0.00 0.00 0.00 73 1013.8
20260506100525 53 128 0.0 0.0 0.00 0.00 0.00 73 1013.9
20260506100032 53 128 0.0 0.0 0.00 0.00 0.00 72 1013.8
20260506095525 53 127 0.0 0.0 0.00 0.00 0.00 72 1013.9
20260506095024 54 126 0.0 0.0 0.00 0.00 0.00 72 1013.9
20260506094524 54 126 0.0 0.0 0.00 0.00 0.00 72 1013.8
20260506094025 54 124 0.0 0.0 0.00 0.00 0.00 72 1013.8
20260506093522 54 124 0.0 0.0 0.00 0.00 0.00 71 1013.8
20260506093021 54 124 0.0 0.0 0.00 0.00 0.00 71 1013.7
20260506092521 54 124 0.0 0.0 0.00 0.00 0.00 71 1013.7
20260506092020 54 124 0.0 0.0 0.00 0.00 0.00 70 1013.7
20260506091519 55 124 0.0 0.0 0.00 0.00 0.00 70 1013.7
20260506091019 55 124 0.0 0.0 0.00 0.00 0.00 69 1013.7
20260506090517 55 124 0.0 0.0 0.00 0.00 0.00 69 1013.6
20260506090017 55 124 0.0 0.0 0.00 0.00 0.00 69 1013.7
20260506085517 55 124 0.0 0.0 0.00 0.00 0.00 69 1013.7
20260506085017 55 124 0.0 0.0 0.00 0.00 0.00 69 1013.6
20260506084516 55 124 0.0 0.0 0.00 0.00 0.00 68 1013.6
20260506084015 55 124 0.0 0.0 0.00 0.00 0.00 67 1013.6
20260506083515 56 124 0.0 0.0 0.00 0.00 0.00 67 1013.6
20260506083013 56 124 0.0 0.0 0.00 0.00 0.00 66 1013.6
20260506082511 56 124 0.0 0.0 0.00 0.00 0.00 64 1013.6
20260506082010 57 124 0.0 0.0 0.00 0.00 0.00 63 1013.5
20260506081515 57 124 0.0 0.0 0.00 0.00 0.00 62 1013.5
20260506081009 57 124 0.0 0.0 0.00 0.00 0.00 62 1013.6
20260506080508 58 124 0.0 0.0 0.00 0.00 0.00 62 1013.5
20260506073059 60 329 0.0 0.0 0.00 0.00 0.00 55 1013.1
20260506072558 61 329 0.0 0.0 0.00 0.00 0.00 55 1013.1
20260506072056 61 329 0.0 0.0 0.00 0.00 0.00 54 1012.9
20260506071556 62 329 0.0 0.0 0.00 0.00 0.00 52 1012.9
20260506071053 62 329 0.0 0.0 0.00 0.00 0.00 51 1012.8
20260506070552 63 329 0.0 0.0 0.00 0.00 0.00 50 1012.7
20260506070103 63 329 0.0 0.0 0.00 0.00 0.00 49 1012.7
20260506062050 63 11 0.0 0.9 0.00 0.00 0.00 46 1012.5
20260506061546 64 295 0.0 3.5 0.00 0.00 0.00 47 1012.4
20260506061046 64 28 0.0 0.9 0.00 0.00 0.00 46 1012.3
20260506060546 64 355 0.0 0.9 0.00 0.00 0.00 47 1012.3
20260506051040 64 128 0.0 0.0 0.00 0.00 0.00 51 1011.8
20260506050541 64 9 0.0 0.0 0.00 0.00 0.00 50 1011.7
20260506045040 65 9 0.0 0.0 0.00 0.00 0.00 48 1011.5
20260506044541 66 9 0.0 0.0 0.00 0.00 0.00 46 1011.4
20260506044040 66 9 0.0 0.0 0.00 0.00 0.00 45 1011.3
20260506043545 66 346 0.0 0.0 0.00 0.00 0.00 45 1011.3
20260506043040 66 15 0.0 0.0 0.00 0.00 0.00 45 1011.3
20260506042541 66 328 0.0 0.0 0.00 0.00 0.00 44 1011.2
20260506042038 67 328 0.0 0.0 0.00 0.00 0.00 43 1011.1
20260506041540 67 302 0.0 0.0 0.00 0.00 0.00 43 1011.0
20260506041038 67 292 0.0 0.0 0.00 0.00 0.00 43 1011.0
20260506040538 67 292 0.0 0.0 0.00 0.00 0.00 43 1010.8
20260506040039 68 294 0.0 0.9 0.00 0.00 0.00 43 1010.7
20260506035538 68 292 0.0 0.9 0.00 0.00 0.00 42 1010.6
20260506035039 68 292 0.0 0.0 0.00 0.00 0.00 42 1010.6
20260506034540 69 315 0.0 0.0 0.00 0.00 0.00 41 1010.5
20260506034038 69 307 0.0 0.0 0.00 0.00 0.00 40 1010.3
20260506033539 70 331 0.0 0.0 0.00 0.00 0.00 40 1010.3
20260506033038 70 307 0.0 0.0 0.00 0.00 0.00 39 1010.2
20260506032538 71 334 0.0 0.0 0.00 0.00 0.00 38 1010.1
20260506032037 71 299 0.0 0.0 0.00 0.00 0.00 38 1010.1
20260506031539 72 306 0.0 0.0 0.00 0.00 0.00 38 1010.1
20260506031038 72 325 0.0 0.0 0.00 0.00 0.00 37 1010.0
20260506030538 73 331 0.0 0.0 0.00 0.00 0.00 37 1009.9
20260506030037 73 297 0.0 0.0 0.00 0.00 0.00 37 1009.9
20260506025537 73 311 0.0 0.9 0.00 0.00 0.00 37 1009.8
20260506025036 74 11 0.0 0.9 0.00 0.00 0.00 36 1009.7
20260506024540 74 341 0.0 0.0 0.00 0.00 0.00 36 1009.6
20260506024036 74 355 0.0 0.9 0.00 0.00 0.00 35 1009.5
20260506023536 75 5 0.0 0.9 0.00 0.00 0.00 34 1009.4
20260506023036 75 335 0.0 0.9 0.00 0.00 0.00 34 1009.4
20260506022536 75 9 0.0 0.9 0.00 0.00 0.00 34 1009.4
20260506022034 75 317 0.0 0.9 0.00 0.00 0.00 35 1009.3
20260506021534 76 332 0.0 5.2 0.00 0.00 0.00 35 1009.2
20260506021034 76 306 0.0 5.2 0.00 0.00 0.00 35 1009.1
20260506020533 76 306 0.0 5.2 0.00 0.00 0.00 36 1009.1
20260506020033 77 333 0.0 3.5 0.00 0.00 0.00 35 1009.0
20260506015534 77 299 0.0 0.9 0.00 0.00 0.00 37 1009.0
20260506015033 77 319 0.0 2.6 0.00 0.00 0.00 39 1009.0
20260506014532 78 299 0.0 2.6 0.00 0.00 0.00 39 1009.0
20260506014034 78 293 0.0 0.0 0.00 0.00 0.00 39 1009.0
20260506013532 78 288 0.0 0.0 0.00 0.00 0.00 39 1009.0
20260506013033 78 271 0.0 0.0 0.00 0.00 0.00 39 1008.9
20260506012532 78 350 0.0 1.7 0.00 0.00 0.00 38 1009.0
20260506012031 78 271 0.0 1.7 0.00 0.00 0.00 40 1009.0
20260506011558 78 298 0.0 0.0 0.00 0.00 0.00 39 1009.0
20260506011030 77 301 0.0 0.0 0.00 0.00 0.00 40 1009.0
20260506010530 77 5 0.0 3.5 0.00 0.00 0.00 39 1008.9
20260506010030 78 312 0.0 3.5 0.00 0.00 0.00 39 1008.9
20260506005529 78 252 0.0 0.9 0.00 0.00 0.00 39 1008.9
20260506005029 78 294 0.0 0.9 0.00 0.00 0.00 39 1008.9
20260506004529 78 305 0.0 0.9 0.00 0.00 0.00 39 1008.8
20260506004030 78 265 0.0 0.9 0.00 0.00 0.00 39 1008.7
20260506003529 78 273 0.0 2.6 0.00 0.00 0.00 39 1008.8
20260506003029 79 290 0.0 0.0 0.00 0.00 0.00 38 1008.8
20260506002530 78 267 0.0 0.0 0.00 0.00 0.00 40 1008.8
20260506002031 78 263 0.0 0.0 0.00 0.00 0.00 39 1008.8
20260506001527 78 38 0.0 0.0 0.00 0.00 0.00 40 1008.8
20260506001027 78 334 0.0 0.0 0.00 0.00 0.00 40 1008.8
20260506000527 78 249 0.0 0.0 0.00 0.00 0.00 40 1008.7
20260506000044 78 325 0.0 0.0 0.00 0.00 0.00 40 1008.8
20260505235526 78 26 0.0 0.9 0.00 0.00 0.00 41 1008.8
20260505235027 78 355 0.0 0.9 0.00 0.00 0.00 41 1008.8
20260505234538 77 305 0.0 0.0 0.00 0.00 0.00 41 1008.9
20260505234024 77 355 0.0 3.5 0.00 0.00 0.00 40 1009.0
20260505233523 77 334 0.0 3.5 0.00 0.00 0.00 40 1009.0
20260505233026 78 305 0.0 0.0 0.00 0.00 0.00 41 1009.0
20260505232526 78 344 0.0 0.0 0.00 0.00 0.00 40 1009.1
20260505232022 78 339 0.0 0.0 0.00 0.00 0.00 39 1009.0
20260505231522 77 72 0.0 0.0 0.00 0.00 0.00 39 1009.1
20260505231021 77 19 0.0 1.7 0.00 0.00 0.00 39 1009.2
20260505230521 77 317 0.0 1.7 0.00 0.00 0.00 38 1009.2
20260505230045 77 236 0.0 0.0 0.00 0.00 0.00 39 1009.2
20260505225523 77 10 0.0 0.0 0.00 0.00 0.00 38 1009.2
20260505225021 77 14 0.0 0.0 0.00 0.00 0.00 39 1009.3
20260505224534 77 315 0.0 0.9 0.00 0.00 0.00 39 1009.4
20260505224020 78 322 0.0 0.9 0.00 0.00 0.00 39 1009.4
20260505223519 78 12 0.0 0.0 0.00 0.00 0.00 38 1009.4
20260505223023 77 308 0.0 0.0 0.00 0.00 0.00 38 1009.6
20260505222522 77 261 0.0 0.0 0.00 0.00 0.00 38 1009.6
20260505222016 77 273 0.0 0.9 0.00 0.00 0.00 37 1009.6
20260505221518 76 264 0.0 0.9 0.00 0.00 0.00 38 1009.7
20260505221017 76 296 0.0 0.9 0.00 0.00 0.00 40 1009.7
20260505220515 76 291 0.0 0.9 0.00 0.00 0.00 37 1009.7
20260505220015 76 252 0.0 0.0 0.00 0.00 0.00 39 1009.9
20260505215516 76 346 0.0 0.9 0.00 0.00 0.00 40 1009.9
20260505215015 76 257 0.0 0.9 0.00 0.00 0.00 40 1010.0
20260505214519 76 252 0.0 0.0 0.00 0.00 0.00 39 1009.9
20260505214013 74 75 0.0 0.9 0.00 0.00 0.00 41 1010.0
20260505213511 74 344 0.0 0.9 0.00 0.00 0.00 41 1010.0
20260505213010 74 274 0.0 0.0 0.00 0.00 0.00 45 1010.0
20260505212510 74 299 0.0 2.6 0.00 0.00 0.00 45 1010.1
20260505212013 73 249 0.0 2.6 0.00 0.00 0.00 45 1010.1
20260505211514 73 296 0.0 0.9 0.00 0.00 0.00 45 1010.0
20260505211050 73 259 0.0 0.9 0.00 0.00 0.00 45 1010.2
20260505210506 72 254 0.0 2.6 0.00 0.00 0.00 46 1010.3
20260505210007 72 277 0.0 2.6 0.00 0.00 0.00 44 1010.3
20260505205506 72 284 0.0 0.0 0.00 0.00 0.00 45 1010.3
20260505205003 72 279 0.0 0.0 0.00 0.00 0.00 45 1010.5
20260505204504 71 259 0.0 1.7 0.00 0.00 0.00 45 1010.5
20260505204003 71 261 0.0 1.7 0.00 0.00 0.00 45 1010.6
20260505203502 71 360 0.0 0.0 0.00 0.00 0.00 46 1010.6
20260505203007 70 290 0.0 0.0 0.00 0.00 0.00 46 1010.6
20260505202502 71 303 0.0 0.0 0.00 0.00 0.00 48 1010.6
20260505202002 71 263 0.0 0.0 0.00 0.00 0.00 48 1010.6
20260505201559 71 284 0.0 0.0 0.00 0.00 0.00 50 1010.7
20260505201058 69 234 0.0 0.9 0.00 0.00 0.00 52 1010.8
20260505200558 68 267 0.0 0.9 0.00 0.00 0.00 52 1010.9
20260505200058 69 261 0.0 0.0 0.00 0.00 0.00 52 1010.9
20260505195601 69 319 0.0 0.0 0.00 0.00 0.00 52 1010.9
20260505195057 69 57 0.0 0.0 0.00 0.00 0.00 50 1010.8
20260505194616 68 279 0.0 0.0 0.00 0.00 0.00 53 1010.9
20260505194054 68 12 0.0 0.9 0.00 0.00 0.00 53 1011.0
20260505193553 68 302 0.0 0.9 0.00 0.00 0.00 53 1011.0
20260505193052 68 278 0.0 0.0 0.00 0.00 0.00 53 1010.9
20260505192549 67 317 0.0 0.0 0.00 0.00 0.00 52 1011.0
20260505192048 67 226 0.0 0.0 0.00 0.00 0.00 52 1011.0
20260505191556 67 268 0.0 0.0 0.00 0.00 0.00 53 1011.0
20260505191046 67 88 0.0 0.0 0.00 0.00 0.00 53 1011.0
20260505190547 66 264 0.0 0.0 0.00 0.00 0.00 54 1011.1
20260505190043 67 244 0.0 0.0 0.00 0.00 0.00 55 1011.1
20260505185545 66 269 0.0 0.0 0.00 0.00 0.00 55 1011.2
20260505185041 66 257 0.0 0.0 0.00 0.00 0.00 57 1011.2
20260505184540 65 242 0.0 0.0 0.00 0.00 0.00 56 1011.2
20260505184038 65 236 0.0 0.0 0.00 0.00 0.00 58 1011.2
20260505183537 64 295 0.0 0.0 0.00 0.00 0.00 59 1011.3
20260505183035 64 269 0.0 0.0 0.00 0.00 0.00 58 1011.3
20260505182534 64 232 0.0 0.0 0.00 0.00 0.00 58 1011.3
20260505182033 65 277 0.0 0.0 0.00 0.00 0.00 58 1011.3
20260505181536 65 262 0.0 0.0 0.00 0.00 0.00 59 1011.3
20260505181030 64 216 0.0 0.0 0.00 0.00 0.00 60 1011.3
20260505180531 64 271 0.0 0.0 0.00 0.00 0.00 60 1011.4
20260505180040 64 243 0.0 0.0 0.00 0.00 0.00 60 1011.4
20260505175530 64 311 0.0 0.0 0.00 0.00 0.00 60 1011.4
20260505175029 64 261 0.0 0.9 0.00 0.00 0.00 61 1011.4
20260505174532 64 260 0.0 0.9 0.00 0.00 0.00 60 1011.4
20260505174031 64 221 0.0 0.0 0.00 0.00 0.00 60 1011.4
20260505173531 63 233 0.0 0.0 0.00 0.00 0.00 63 1011.4
20260505173028 62 234 0.0 0.0 0.00 0.00 0.00 62 1011.4
20260505172525 62 262 0.0 0.0 0.00 0.00 0.00 64 1011.4
20260505172022 61 326 0.0 0.0 0.00 0.00 0.00 65 1011.5
20260505171521 61 307 0.0 0.0 0.00 0.00 0.00 66 1011.5
20260505171019 60 303 0.0 0.0 0.00 0.00 0.00 68 1011.5
20260505170518 59 65 0.0 0.0 0.00 0.00 0.00 69 1011.5
20260505170020 59 257 0.0 0.0 0.00 0.00 0.00 70 1011.7
20260505165515 58 259 0.0 0.0 0.00 0.00 0.00 71 1011.7
20260505165014 58 350 0.0 0.0 0.00 0.00 0.00 72 1011.7
20260505164513 57 272 0.0 0.0 0.00 0.00 0.00 73 1011.8
20260505164012 57 286 0.0 0.0 0.00 0.00 0.00 74 1011.8
20260505163514 57 286 0.0 0.0 0.00 0.00 0.00 74 1011.8
20260505163015 57 259 0.0 0.0 0.00 0.00 0.00 75 1011.8
20260505162508 56 259 0.0 0.0 0.00 0.00 0.00 76 1011.8
20260505162010 56 273 0.0 0.0 0.00 0.00 0.00 76 1011.8
20260505161507 56 273 0.0 0.0 0.00 0.00 0.00 76 1011.8
20260505161007 56 265 0.0 0.0 0.00 0.00 0.00 75 1011.8
20260505160507 56 266 0.0 0.0 0.00 0.00 0.00 76 1011.8
20260505153004 55 266 0.0 0.0 0.00 0.00 0.00 79 1011.7
20260505152501 55 264 0.0 0.0 0.00 0.00 0.00 79 1011.7
20260505152101 55 244 0.0 0.0 0.00 0.00 0.00 79 1011.7
20260505151601 55 279 0.0 0.0 0.00 0.00 0.00 79 1011.6
20260505151058 55 279 0.0 0.0 0.00 0.00 0.00 80 1011.5
20260505150557 55 279 0.0 0.0 0.00 0.00 0.00 80 1011.5
20260505150111 55 279 0.0 0.0 0.00 0.00 0.00 80 1011.5
20260505140544 54 297 0.0 0.0 0.00 0.00 0.00 83 1011.2
20260505125034 54 301 0.0 0.0 0.00 0.00 0.00 82 1010.5
20260505124542 54 309 0.0 0.0 0.00 0.00 0.00 81 1010.5
20260505124033 54 301 0.0 0.0 0.00 0.00 0.00 82 1010.4
20260505123533 54 301 0.0 0.0 0.00 0.00 0.00 82 1010.5
20260505123035 54 316 0.0 0.0 0.00 0.00 0.00 81 1010.4
20260505122532 54 313 0.0 0.0 0.00 0.00 0.00 81 1010.4
20260505122032 54 325 0.0 0.0 0.00 0.00 0.00 81 1010.4
20260505121559 54 343 0.0 0.0 0.00 0.00 0.00 81 1010.4
20260505121031 54 313 0.0 0.0 0.00 0.00 0.00 81 1010.3
20260505120530 54 313 0.0 0.0 0.00 0.00 0.00 81 1010.3
20260505120029 54 309 0.0 0.0 0.00 0.00 0.00 81 1010.3
20260505115530 54 299 0.0 0.0 0.00 0.00 0.00 81 1010.2
20260505115029 54 309 0.0 0.0 0.00 0.00 0.00 81 1010.1
20260505114530 54 309 0.0 0.0 0.00 0.00 0.00 81 1010.1
20260505114028 54 341 0.0 0.0 0.00 0.00 0.00 81 1010.1
20260505113528 54 320 0.0 0.0 0.00 0.00 0.00 81 1010.0
20260505113030 54 313 0.0 0.0 0.00 0.00 0.00 81 1010.0
20260505112530 54 303 0.0 0.0 0.00 0.00 0.00 82 1010.0
20260505112027 54 301 0.0 0.0 0.00 0.00 0.00 82 1010.0
20260505111534 54 298 0.0 0.0 0.00 0.00 0.00 82 1009.9
20260505111025 54 300 0.0 0.0 0.00 0.00 0.00 82 1009.9
20260505110526 54 312 0.0 0.0 0.00 0.00 0.00 82 1009.8